Starlink 30455

operational
NORAD ID: 57942 Int'l Des: 2023-148 Owner: SPXS Country: US Constellation: starlink
LEOCIRCULAR

Über Starlink 30455

Beschreibung wird geladen...

Live-Position

3D-Globus wird geladen...

Nächste Überflüge

Höhenverlauf

Altitude vs Time

uPlot chart will show altitude changes over time

Zweizeiliger Elementsatz

1 57942U 23148H 25354.30577109 .00000485 00000-0 28514-4 0 9997
2 57942 53.1612 33.2165 0001215 100.5844 259.5293 15.30190570126261
Epoch: 20. Dez. 2025 • Age: 11 hours

Aktueller Status

Höhe 476.4 km
Geschwindigkeit 7.63 km/s
Subsatellitenpunkt 28.70°N, 48.47°E
Startdatum 25. Sept. 2023
Alter 2.2 years
Typ internet

Technische Details

Klassifizierung Payload
Masse 730.00 kg
Trockenmasse 700.00 kg
Gesamtmasse 730.00 kg
Länge 0.30 m
Durchmesser 4.10 m
Spannweite 29.00 m
Form Box + pan
Hersteller SPXS
Bus-Typ Starlink V2M
Phasenstatus In Orbit
Besitzer/Staat SPXS/US

Große Konstellationen

Loading constellations...